Location: Hillsman's Observatory
(38.8566°N, 93.9398°W)
Time: 22:58:25
(UTC-06:00)

Envisat - Visible Passes

Search period start: 22 February 2018 00:00
Search period end: 04 March 2018 00:00
Orbit: 764 x 766 km, 98.2° (Epoch: 22 February)

Date Brightness Start Highest point End Pass type
(mag) Time Alt. Az. Time Alt. Az. Time Alt. Az.
22 Feb 3.7 18:57:45 10° SE 19:02:09 30° ENE 19:06:33 10° N visible
22 Feb 4.8 20:36:42 10° SSW 20:41:05 29° W 20:45:31 10° NW visible
23 Feb 4.6 18:23:11 10° E 18:25:50 14° ENE 18:28:28 10° NNE visible
23 Feb 3.2 19:59:12 10° S 20:04:14 68° WSW 20:09:19 10° NNW visible
24 Feb 3.1 19:22:39 10° SSE 19:27:34 53° ENE 19:32:31 10° N visible
24 Feb 5.6 21:03:44 10° SW 21:06:53 16° W 21:10:03 10° NW visible
25 Feb 4.0 18:47:05 10° ESE 18:51:06 24° ENE 18:55:09 10° NNE visible
25 Feb 4.3 20:25:13 10° SSW 20:29:54 37° W 20:34:36 10° NNW visible
26 Feb 2.9 19:48:01 10° SSE 19:53:06 86° WSW 19:58:13 10° NNW visible
27 Feb 3.3 19:11:45 10° SE 19:16:30 42° ENE 19:21:15 10° N visible
27 Feb 5.3 20:51:52 10° SW 20:55:39 21° W 20:59:27 10° NW visible
28 Feb 4.3 18:36:30 10° ESE 18:40:04 20° ENE 18:43:40 10° NNE visible
28 Feb 3.9 20:13:50 10° S 20:18:43 47° W 20:23:37 10° NNW visible
01 Mar 2.9 19:36:55 10° SSE 19:41:58 75° ENE 19:47:03 10° N visible
01 Mar 5.9 21:19:58 10° WSW 21:21:30 11° W 21:23:02 10° WNW visible
02 Mar 3.6 19:00:55 10° SE 19:05:25 33° ENE 19:09:57 10° N visible
02 Mar 4.9 20:40:11 10° SSW 20:44:26 27° W 20:48:41 10° NW visible
03 Mar 3.4 20:02:33 10° S 20:07:33 61° W 20:12:35 10° NNW visible
